Flag for Hungary Weather past 2 weeks in Debrecen, Hungary

Now
45 °F

Cool.


Feels Like: 43 °F
Forecast: 38 / 49 °F
Wind: 5 mph from Southwest

Location: Debrecen

Current Time: Apr 1, 2015 at 12:49:48 AM

Latest Report: Apr 1, 2015 at 12:00 AM


Visibility: N/A

Pressure: 29.54 "Hg

Humidity: 93%

Dew point: 43 °F

Location of DebrecenLocation

Historic Weather in Debrecen — Graph

°F

Debrecen temperature yesterday

Maximum temperature yesterday: 50 °F (at 6:00 PM)
Minimum temperature yesterday: 33 °F (at 2:00 AM)
Average temperature yesterday: 43 °F

Past Weeks' High & Low Weather Summary

 TemperatureHumidityPressure
High71 °F (Mar 27, 3:00 PM)91% (Mar 31, 3:00 AM)30.60 "Hg (Mar 31, 3:00 AM)
Low25 °F (Mar 21, 6:00 AM)22% (Mar 17, 4:00 PM)29.50 "Hg (Mar 30, 3:00 PM)
Average46 °F57%30.01 "Hg
* Reported Mar 16 10:00 PM — Mar 31 11:00 PM, Debrecen, Weather by CustomWeather, © 2015

Note: Actual official high and low records may vary slightly from our data, if they occured in-between our weather recording intervals... More about our weather records

Advertising

Debrecen weather history for previous 24 hours

 ConditionsComfort  
Time TempWeatherWind HumidityBarometerVisibility
11:00 PM
Tue, Mar 31
46 °FCool.3 mph88%29.55 "HgN/A
10:00 PM48 °FCool.5 mph86%29.56 "HgN/A
9:00 PM48 °FLight rain. Overcast.9 mph85%29.55 "Hg16 mi
8:00 PM48 °FLight rain. Overcast.7 mph73%29.53 "Hg12 mi
7:00 PM48 °FLight rain. Overcast.5 mph72%29.53 "Hg16 mi
6:00 PM50 °FOvercast.8 mph64%29.54 "Hg19 mi
5:00 PM49 °FOvercast.9 mph60%29.54 "Hg19 mi
4:00 PM48 °FOvercast.9 mph56%29.58 "Hg22 mi
3:00 PM47 °FLight rain. Overcast.10 mph52%29.63 "Hg16 mi
2:00 PM47 °FOvercast.13 mph55%29.69 "Hg19 mi
1:00 PM47 °FOvercast.10 mph60%29.72 "Hg12 mi
12:00 PM46 °FOvercast.8 mph70%29.75 "Hg9 mi
11:00 AM47 °FOvercast.7 mph66%29.76 "Hg12 mi
10:00 AM44 °FOvercast.5 mph72%29.78 "Hg9 mi
9:00 AM41 °FScattered clouds.5 mph80%29.80 "Hg11 mi
8:00 AM36 °FPassing clouds.2 mph88%29.80 "Hg9 mi
7:00 AM33 °FPassing clouds.1 mph89%29.80 "Hg9 mi
6:00 AM34 °FPassing clouds.2 mph87%29.80 "Hg12 mi
5:00 AM36 °FPassing clouds.3 mph83%29.79 "Hg7 mi
4:00 AM36 °FChilly.5 mph83%29.79 "HgN/A
3:00 AM35 °FChilly.3 mph91%29.78 "HgN/A
2:00 AM33 °FChilly.No wind88%29.77 "HgN/A
1:00 AM38 °FChilly.2 mph80%29.74 "HgN/A
12:00 AM40 °FChilly.3 mph81%29.71 "HgN/A
Weather by CustomWeather, © 2015

See weather overviewHow to use our weather pages